This is the latest recevied weather packets stored in our database for station/object EA3ANS-1. If no packets are shown the sender has not sent any weather packets the latest 10 day(s).
| Time | Temp. | Humidity | Pressure | Rain* | Wind** | Luminosity | Snow |
|---|---|---|---|---|---|---|---|
| 1777951967 | 11.11° C | - | 1012 hPa | 0 mm | 2.68 m/s, 322° | - | - |
| 1777951363 | 11.11° C | - | 1012 hPa | 0 mm | 2.24 m/s, 266° | - | - |
| 1777950765 | 11.11° C | - | 1012 hPa | 0 mm | 1.34 m/s, 325° | - | - |
| 1777950168 | 11.11° C | - | 1011.8 hPa | 0 mm | 3.13 m/s, 305° | - | - |
| 1777949563 | 11.11° C | - | 1011.8 hPa | 0 mm | 3.58 m/s, 304° | - | - |
| 1777948960 | 11.11° C | - | 1011.8 hPa | 0 mm | 4.02 m/s, 321° | - | - |
| 1777948360 | 11.67° C | - | 1011.8 hPa | 0 mm | 1.79 m/s, 21° | - | - |
| 1777947760 | 11.67° C | - | 1011.8 hPa | 0 mm | 3.58 m/s, 319° | - | - |
| 1777947161 | 11.67° C | - | 1011.9 hPa | 0 mm | 1.34 m/s, 283° | - | - |
| 1777946564 | 11.67° C | - | 1011.7 hPa | 0 mm | 2.24 m/s, 352° | - | - |
| 1777945965 | 11.67° C | - | 1011.7 hPa | 0 mm | 3.13 m/s, 359° | - | - |
| 1777945368 | 12.22° C | - | 1011.6 hPa | 0 mm | 3.13 m/s, 318° | - | - |
| 1777944764 | 11.67° C | - | 1011.7 hPa | 0 mm | 2.68 m/s, 323° | - | - |
| 1777944161 | 11.67° C | - | 1011.7 hPa | 0 mm | 2.24 m/s, 295° | - | - |
| 1777943564 | 12.22° C | - | 1011.7 hPa | 0 mm | 2.24 m/s, 336° | - | - |
| 1777942963 | 12.22° C | - | 1011.8 hPa | 0 mm | 2.68 m/s, 342° | - | - |
| 1777942363 | 12.22° C | - | 1012 hPa | 0 mm | 2.68 m/s, 309° | - | - |
| 1777941765 | 12.78° C | - | 1012 hPa | 0 mm | 1.79 m/s, 308° | - | - |
| 1777941166 | 12.22° C | - | 1011.9 hPa | 0 mm | 0.89 m/s, 305° | - | - |
| 1777940563 | 12.22° C | - | 1011.9 hPa | 0 mm | 2.24 m/s, 326° | - | - |
| 1777939960 | 12.22° C | - | 1011.9 hPa | 0 mm | 1.79 m/s, 339° | - | - |
| 1777939359 | 12.22° C | - | 1011.9 hPa | 0 mm | 0.89 m/s, 336° | - | - |
| 1777938760 | 12.22° C | - | 1011.9 hPa | 0 mm | 0.89 m/s, 30° | - | - |
| 1777938159 | 12.22° C | - | 1011.9 hPa | 0 mm | 0 m/s | - | - |
| 1777937562 | 12.22° C | - | 1011.8 hPa | 0 mm | 0.45 m/s, 205° | - | - |
* Rain latest hour (hover to see other rain measurements)
** Current wind speed in m/s (hover to see current wind gust speed)